Location: Tyumen
(57.1527°N, 65.5323°E)
Time: 05:44:45
(UTC+05:00)

ISS - Pass Details

Date: 06 December 2021
Orbit: 413 x 422 km, 51.6° (Epoch: 22 January)

Event Time Altitude Azimuth Distance (km) Brightness Sun altitude
Rises 17:10:37 0° 268° (W) 2,388 1.4 -8.9°
Reaches altitude 10° 17:13:01 10° 253° (WSW) 1,519 0.6 -9.2°
Maximum altitude 17:15:44 23° 200° (SSW) 966 -1.3 -9.5°
Drops below altitude 10° 17:18:28 10° 146° (SSE) 1,510 -1.0 -9.8°
Enters shadow 17:22:06 -4° 127° (SE) 2,864 0.2 -10.3°
